Погода в Байгуле

Россия / Забайкальский край     52°14′52″N   116°44′44″E
темп.,
°C
ветер,
м/с
пор.,
м/с
влажн.,
%
обл.,
%
осадки,
мм/ч
давл.,
гПа
погр.,
м
13 июня, вс
вс1300:00+16юв1168100 0.0 100611
03:00+14ююз117785 0.3 100710
06:00+13ссв11865 0.0 100720
09:00+19св22685 0.1 1006405
12:00+24в3351100 0.0 1004830
15:00+26вюв4540100 0.0 10011473
18:00+25ююз2347100 0.0 1000225
21:00+18св2376100 0.1 100293
14 июня, пн
пн1400:00+17з0177100 0.0 100311
03:00+16с1178100 0.0 100211
06:00+16юв1183100 0.1 100115
09:00+17з3375100 0.1 1002465
12:00+15з4588100 1.0 1002367
15:00+19зюз2459100 1.1 10011031
18:00+21ю2351100 0.0 1000960
21:00+16ююв3375100 0.0 100144
15 июня, вт
вт1500:00+13юв00808 0.0 100111
03:00+13з0080100 0.0 100111
06:00+13зсз1280100 0.1 100237
09:00+15юз227082 0.2 1002213
12:00+21зюз5640100 0.0 10021948
15:00+24зюз362950 0.0 10002921
18:00+22зсз683521 0.0 10001889
21:00+17зсз813425 0.0 1003583
16 июня, ср
ср1600:00+13зсз61234100 0.0 1006468
03:00+9зюз51043100 0.0 1007327
06:00+8зюз6951100 0.0 1008314
09:00+12зюз5645100 0.0 1008794
12:00+17зюз57321 0.0 10061852
15:00+19зюз572748 0.0 10042778
18:00+20юз5626100 0.0 10022872
21:00+15сз5114159 0.0 1002338
17 июня, чт
чт1700:00+10зсз3355100 0.0 100242
03:00+8зсз3465100 0.0 100258
06:00+9сз3670100 0.0 1002198
09:00+12с5663100 0.1 1000475
12:00+10ссз71184100 2.4 9981044
15:00+10с112083100 7.3 9941676
18:00+10с101989100 7.2 9901586
21:00+10с122289100 19.3 9881363